Weather History for George, South Africa

Change the Weather History Date:

Monday, August 26, 2013

  Actual Average Record
Temperature  
Mean Temperature 58 °F -  
Max Temperature 67 °F 64 °F 75 °F (2007)
Min Temperature 49 °F 47 °F 42 °F (1998)
Degree Days  
Heating Degree Days 7    
Growing Degree Days 8 (Base 50)    
Moisture  
Dew Point 49 °F    
Average Humidity 74    
Maximum Humidity 88    
Minimum Humidity 46    
Precipitation  
Precipitation 0.00 in - - ()
Sea Level Pressure  
Sea Level Pressure 29.87 in    
Wind  
Wind Speed 6 mph ()    
Max Wind Speed 15 mph    
Max Gust Speed -    
Visibility 8.3 miles    
Events      
Averages and records for this station are not official NWS values.
T = Trace of Precipitation, MM = Missing Value Source: Averaged Metar Reports

Daily Weather History Graph

Daily Weather History Graph

Search for Another Location

Airport:

Trip Planner

Search our weather history database for the weather conditions in past years. The results will help you decide how hot, cold, wet, or windy it might be!

Date:

Astronomy

Aug. 26, 2013 Rise Set
Actual Time 6:56 AM SAST 6:08 PM SAST
Civil Twilight 6:31 AM SAST 6:33 PM SAST
Nautical Twilight 6:02 AM SAST 7:02 PM SAST
Astronomical Twilight 5:33 AM SAST 7:31 PM SAST
Moon 11:54 PM SAST (8/26) 9:59 AM SAST (8/26)
Length of Visible Light 12h 02m
Length of Day
11h 11m
Waning Gibbous, 69% of the Moon is Illuminated
Aug 26
Waning Gibbous
Aug 28
Last Quarter
Sep 5
New
Sep 12
First Quarter
Sep 19
Full

Hourly Weather History & Observations

Time (SAST) Temp. Dew Point Humidity Pressure Visibility Wind Dir Wind Speed Gust Speed Precip Events Conditions
12:00 AM 51.8 °F 46.4 °F 82% 29.92 in - NNW 3.5 mph - N/A   Clear
1:00 AM 51.8 °F 46.4 °F 82% 29.92 in - NNW 4.6 mph - N/A   Clear
2:00 AM 51 °F 45 °F 74% 29.90 in 12 mi NW 4.6 mph - -  
2:00 AM 51.8 °F 46.4 °F 82% 29.89 in - NNW 4.6 mph - N/A   Clear
3:00 AM 53.6 °F 46.4 °F 77% 29.83 in - NW 4.6 mph - N/A   Clear
4:00 AM 51.8 °F 44.6 °F 76% 29.80 in - NNE 4.6 mph - N/A   Clear
5:00 AM 53.6 °F 46.4 °F 77% 29.77 in - North 4.6 mph - N/A   Clear
6:00 AM 53.6 °F 44.6 °F 72% 29.77 in - WNW 4.6 mph - N/A   Clear
7:00 AM 57.2 °F 44.6 °F 63% 29.77 in - West 6.9 mph - N/A   Clear
8:00 AM 57 °F 44 °F 52% 29.84 in 19 mi WNW 9.2 mph - -   Mostly Cloudy
8:00 AM 57.2 °F 42.8 °F 59% 29.83 in - WNW 9.2 mph - N/A   Clear
9:00 AM 59.0 °F 46.4 °F 63% 29.89 in - West 5.8 mph - N/A   Clear
10:00 AM 66.2 °F 44.6 °F 46% 29.89 in - SW 15.0 mph - N/A   Clear
11:00 AM 62.6 °F 48.2 °F 59% 29.92 in - SW 11.5 mph - N/A   Clear
12:00 PM 64.4 °F 50.0 °F 59% 29.89 in - SW 12.7 mph - N/A   Clear
1:00 PM 64.4 °F 53.6 °F 68% 29.89 in - South 6.9 mph - N/A   Clear
2:00 PM 62 °F 54 °F 68% 29.89 in 12 mi SSW 10.4 mph - -   Scattered Clouds
2:00 PM 62.6 °F 53.6 °F 72% 29.89 in 6.2 mi SSW 10.4 mph - N/A   Partly Cloudy
3:00 PM 62.6 °F 53.6 °F 72% 29.86 in 6.2 mi SSW 9.2 mph - N/A   Partly Cloudy
4:00 PM 60.8 °F 53.6 °F 77% 29.86 in 6.2 mi South 6.9 mph - N/A   Partly Cloudy
5:00 PM 58 °F 53 °F 80% 29.88 in 12 mi South 8.1 mph - -   Scattered Clouds
5:00 PM 59.0 °F 53.6 °F 82% 29.86 in 6.2 mi South 8.1 mph - N/A   Partly Cloudy
6:00 PM 57.2 °F 51.8 °F 82% 29.89 in 6.2 mi South 5.8 mph - N/A   Mostly Cloudy
7:00 PM 57.2 °F 51.8 °F 82% 29.89 in 6.2 mi South 4.6 mph - N/A   Mostly Cloudy
8:00 PM 56 °F 52 °F 83% 29.91 in 12 mi South 2.3 mph - -   Mostly Cloudy
8:00 PM 57.2 °F 51.8 °F 82% 29.89 in 6.2 mi South 2.3 mph - N/A   Mostly Cloudy
9:00 PM 57.2 °F 53.6 °F 88% 29.92 in 6.2 mi WSW 5.8 mph - N/A   Overcast
10:00 PM 55.4 °F 51.8 °F 88% 29.92 in 4.3 mi SSW 2.3 mph - N/A   Overcast
11:00 PM 55.4 °F 51.8 °F 88% 29.92 in 3.7 mi ENE 3.5 mph - N/A   Overcast